Meteo Giornale » Osservazioni meteo Gran Bretagna » Edinburgh

ore: 14:50 - Osservazioni Meteo Edinburgh
Lat. 55° 57' N Lon. 3° 21' W Alt. 41 metri s.l.m.

coperto Europe/London

18 °C

Coperto

Temp. 24 Ore

14 °C

19 °C

Ovest

22.2 Km/h

Dew point 15 °C

Umidità 82 %

Visibilità  10 Km

Il sole sorge alle ore 07:01

Il sole tramonta alle ore 19:09

Data e Ora Cielo e Fenomeni T °C DP °C Um. % Pres. hPa Vis. km Vento km/h
Oggi h: 14:50 coperto Coperto 18 15 82 1007 10 O 22.2
Oggi h: 13:50 molto_nuvoloso Molto Nuvoloso 19 15 77 1006 10 O 27.8
Oggi h: 13:20 molto_nuvoloso Molto Nuvoloso 19 15 77 1006 10 O 27.8
Oggi h: 12:50 molto_nuvoloso Molto Nuvoloso 19 15 77 1006 10 O 33.3
Oggi h: 12:20 molto_nuvoloso Molto Nuvoloso 18 15 82 1006 10 O/SO 33.3
Oggi h: 11:50 molto_nuvoloso Molto Nuvoloso 17 15 88 1006 10 O/SO 25.9
Oggi h: 11:20 molto_nuvoloso Molto Nuvoloso 17 14 82 1006 5 O 29.6
Oggi h: 10:50 nuvoloso Nuvoloso 17 13 77 1006 10 O 33.3
Oggi h: 10:20 nuvoloso Nuvoloso 17 12 72 1006 10 O 33.3
Oggi h: 09:50 nuvoloso Nuvoloso 17 14 82 1006 10 O 33.3
Oggi h: 09:20 molto_nuvoloso Molto Nuvoloso 17 14 82 1006 10 O/SO 37
Oggi h: 08:20 coperto Coperto 16 14 87 1006 10 O/SO 31.5
Oggi h: 07:50 molto_nuvoloso Molto Nuvoloso 15 14 93 1006 10 O/SO 27.8
Oggi h: 07:20 molto_nuvoloso Molto Nuvoloso 15 14 93 1006 10 O/SO 33.3
Oggi h: 06:50 molto_nuvoloso Molto Nuvoloso 15 13 87 1006 10 O/SO 31.5
Oggi h: 06:20 molto_nuvoloso Molto Nuvoloso 14 13 93 1006 10 O/SO 37
Oggi h: 05:50 nuvoloso Nuvoloso 14 13 93 1006 10 O/SO 29.6
Oggi h: 05:20 molto_nuvoloso Molto Nuvoloso 14 12 87 1006 10 O/SO 35.2
Oggi h: 04:50 molto_nuvoloso Molto Nuvoloso 14 11 82 1007 10 O/SO 31.5
Oggi h: 04:20 nuvoloso Nuvoloso 14 10 76 1007 10 O/SO 29.6
Oggi h: 03:50 nuvoloso Nuvoloso 14 10 76 1007 10 O/SO 25.9
Oggi h: 03:20 nuvoloso Nuvoloso 14 11 82 1008 10 O/SO 31.5
Oggi h: 02:50 nuvoloso Nuvoloso 14 11 82 1009 10 O/SO 16.7
Oggi h: 02:20 nuvoloso Nuvoloso 14 11 82 1009 10 O/SO 18.5
Oggi h: 01:50 molto_nuvoloso Molto Nuvoloso 14 11 82 1009 10 O/SO 16.7
Oggi h: 01:20 molto_nuvoloso Molto Nuvoloso 14 11 82 1010 10 O/SO 22.2
Oggi h: 00:50 molto_nuvoloso Molto Nuvoloso 14 11 82 1010 10 O/SO 27.8
Oggi h: 00:20 molto_nuvoloso Molto Nuvoloso 14 12 87 1011 10 O/SO 25.9
Ieri h: 23:50 molto_nuvoloso Molto Nuvoloso 14 12 87 1011 10 O/SO 27.8
Ieri h: 22:50 coperto Coperto 15 13 87 1012 9 O/SO 24
Ieri h: 22:20 coperto Coperto 15 13 87 1013 10 O/SO 31.5
Ieri h: 21:20 molto_nuvoloso Molto Nuvoloso 15 13 87 1013 10 O/SO 27.8
Ieri h: 20:50 coperto Coperto 15 13 87 1013 10 O/SO 20.3
Ieri h: 20:20 coperto Coperto 14 13 93 1013 10 O/SO 20.3
Ieri h: 19:50 molto_nuvoloso Molto Nuvoloso 14 13 93 1013 10 O/SO 18.5
Ieri h: 19:20 molto_nuvoloso Molto Nuvoloso 15 13 87 1014 10 O 22.2
Ieri h: 18:50 molto_nuvoloso Molto Nuvoloso 15 12 82 1014 10 O/SO 20.3
Ieri h: 18:20 coperto_pioggia Pioggia Debole 15 13 87 1014 10 O 16.7
Ieri h: 17:50 molto_nuvoloso Molto Nuvoloso 15 13 87 1014 10 O/SO 18.5
Ieri h: 17:20 nuvoloso Nuvoloso 15 13 87 1014 10 O/SO 22.2
Ieri h: 16:50 nuvoloso Nuvoloso 16 12 77 1014 10 O 20.3
Ieri h: 16:20 nuvoloso Nuvoloso 16 12 77 1014 10 O/SO 24
Ieri h: 15:50 coperto Coperto 16 13 82 1014 10 O/SO 22.2